Yuba City, California, United States (95991)
Lat: 39.14N, Lon: 121.62W
Wx Zone: CAZ016
Local Info
Past Weather Observations for Sunday, September 14, 2014

NOTE: This archive is for the closest National Weather Service station to Yuba City. Information may differ from the station used for current weather conditions.

Click here for Long-term Archive

Time Weather Temperature Dewpoint Humidity Pressure Winds Precip Visibility
23:53
Clear
72°F / 22°C 54°F / 12°C 53% 29.77 in
(1008 mb)
E 4.6 mph
(E 7 kph)
- 10SM
22:53
Clear
73°F / 23°C 54°F / 12°C 50% 29.77 in
(1008 mb)
E 3.5 mph
(E 6 kph)
- 10SM
21:53
Clear
73°F / 23°C 55°F / 13°C 53% 29.74 in
(1007 mb)
SE 3.5 mph
(SE 6 kph)
- 10SM
20:53
Clear
75°F / 24°C 55°F / 13°C 50% 29.74 in
(1007 mb)
ESE 3.5 mph
(ESE 6 kph)
- 10SM
19:53
Clear
79°F / 26°C 55°F / 13°C 45% 29.74 in
(1007 mb)
ESE 5.8 mph
(ESE 9 kph)
- 10SM
18:53
Clear
84°F / 29°C 50°F / 10°C 31% 29.71 in
(1006 mb)
Calm - 10SM
17:53
Clear
91°F / 33°C 46°F / 8°C 21% 29.71 in
(1006 mb)
S 4.6 mph
(S 7 kph)
- 10SM
16:53
Partly Cloudy
97°F / 36°C 52°F / 11°C 22% 29.74 in
(1007 mb)
SSE 8.1 mph
(SSE 13 kph)
- 10SM
15:53
Clear
99°F / 37°C 46°F / 8°C 17% 29.74 in
(1007 mb)
SSE 8.1 mph
(SSE 13 kph)
- 10SM
14:53
Clear
97°F / 36°C 46°F / 8°C 18% 29.74 in
(1007 mb)
Calm - 10SM
13:53
Clear
95°F / 35°C 52°F / 11°C 23% 29.77 in
(1008 mb)
Variable 6.9 mph
(Variable 11 kph)
- 10SM
12:53
Clear
91°F / 33°C 52°F / 11°C 26% 29.77 in
(1008 mb)
SE 8.1 mph
(SE 13 kph)
- 10SM
11:53
Clear
88°F / 31°C 54°F / 12°C 31% 29.8 in
(1009 mb)
SSE 5.8 mph
(SSE 9 kph)
- 10SM
10:53
Clear
84°F / 29°C 54°F / 12°C 35% 29.8 in
(1009 mb)
SSE 6.9 mph
(SSE 11 kph)
- 10SM
09:53
Clear
81°F / 27°C 54°F / 12°C 39% 29.83 in
(1010 mb)
SSE 8.1 mph
(SSE 13 kph)
- 10SM
08:53
Clear
75°F / 24°C 55°F / 13°C 50% 29.83 in
(1010 mb)
S 6.9 mph
(S 11 kph)
- 10SM
07:53
Clear
70°F / 21°C 54°F / 12°C 57% 29.8 in
(1009 mb)
S 9.2 mph
(S 15 kph)
- 10SM
06:53
Clear
66°F / 19°C 54°F / 12°C 64% 29.8 in
(1009 mb)
Calm - 10SM
05:53
Clear
61°F / 16°C 52°F / 11°C 72% 29.77 in
(1008 mb)
Calm - 10SM
04:53
Clear
63°F / 17°C 54°F / 12°C 73% 29.77 in
(1008 mb)
Calm - 10SM
03:53
Clear
64°F / 18°C 54°F / 12°C 68% 29.74 in
(1007 mb)
Calm - 10SM
02:53
Clear
66°F / 19°C 54°F / 12°C 64% 29.74 in
(1007 mb)
S 5.8 mph
(S 9 kph)
- 10SM
01:53
Clear
70°F / 21°C 54°F / 12°C 57% 29.74 in
(1007 mb)
SE 4.6 mph
(SE 7 kph)
- 10SM
00:53
Clear
72°F / 22°C 54°F / 12°C 53% 29.74 in
(1007 mb)
SE 4.6 mph
(SE 7 kph)
- 10SM
Time Weather Temperature Dewpoint Humidity Pressure Winds Precip Visibility


Weather for websites

WeatherForYou.com, LLC is not responsible for any damages or problems caused by this service. Current weather conditions are obtained from the closest station including government and personal stations which may have varying degrees of accuracy. Weather forecasts are derived from the NOAA NDFD. Like all things, this site belongs to Jesus Christ... He just trusts me to maintain it. If you have any questions or comments email webmaster@weatherforyou.com

Copyright © 2014, WeatherForYou.com LLC. All rights reserved.